Tracking 29967 objects as of 5-Dec-2024
HD Live streaming from Space Station
objects crossing your sky now

STARLINK-5084

Track STARLINK-5084 now!
10-day predictions
STARLINK-5084 is classified as:


NORAD ID: 54851
Int'l Code: 2022-177AH
Perigee: 565.4 km
Apogee: 567.1 km
Inclination: 43.0 °
Period: 95.8 minutes
Semi major axis: 6937 km
RCS: Unknown
Launch date: December 28, 2022
Source: United States (US)
Launch site: AIR FORCE EASTERN TEST RANGE (AFETR)
Your satellite tracking list
Your tracking list is empty




NASA's NSSDC Master Catalog

Two Line Element Set (TLE):
1 54851U 22177AH  24340.40772232 -.00000168  00000-0  26675-5 0  9999
2 54851  43.0017  96.2459 0001213 262.0834  97.9871 15.02533159107033
Source of the keplerian elements: AFSPC